Showing default

BLUEBON, 62688

Orbit data source: Space-Track

BLUEBON, 62688 is a Polish payload satellite in SSO that was launched on Tue, 14 Jan 2025 UTC via an FALCON 9 launch vehicle from the Air Force Western Test Range (AFWTR). Payload-class satellites include a variety of spacecraft equipped with specific instruments for various scientific and technological missions. These include communications satellites like Starlink; space stations such as the ISS; scientific satellites like the Hubble; Earth observation satellites from companies like Planet Labs, Umbra, and HawkEye 360; GPS; miniature CubeSats for education and research; and military/defense satellites.

Loading next visibility...
Identifier
62688, 2025-009CH
Orbit
SSO
Country
Flag of PLPL / POL
Related business
Manufacturer
SatRevolution
Mission
Operational Commercial Imaging
Bus & Motor
CUBESAT 6UXL, Unknown motor
Mass
~15 kg wet, ~15 kg dry
Launch date (UTC)
2025-01-14 (1 year ago)
Launch vehicle
FALCON 9
Launch site
Air Force Western Test Range (AFWTR)
Object type
Payload
Rocket body
Debris
Shape & HBR
Box, 0.3 m
Radar Cross Section
0.045 m², Medium (>0.1 m² and < 1m²)

Expand to show TLE details & history
Last TLE update: 20 hours ago

TLE from 20 hours ago
0 BLUEBON
1 62688U 25009CH  26171.19053077  .00006574  00000-0  22351-3 0  9993
2 62688  97.3985 254.2724 0001035  43.4096 316.7226 15.30792882 79439
Epoch: 2026-06-20T04:34Z
TLE epoch observation values (Epoch: 2026-06-20T04:34:21.858Z)
Latitude
-0.00006°
Longitude
-82.72737°
Altitude
476.034 km
Speed
7.628 km/s
True Right ascension
16h 57m 05s
True Declination
0° 00' 00"
Sunlit
Object was in full shadow at epoch
Visualization orbit readout
Latitude
Unknown
Longitude
Unknown
Altitude
Unknown
Speed
Unknown
Apparent Right ascension
Unknown
Apparent Declination
Unknown
Sunlit
N/A
Visualization observer readout
Local Sidereal Time
11:43:41
Azimuth
Unknown
Elevation
Unknown
Doppler factor
Unknown
Orbital elements
Apogee altitude
471.105 km
Perigee altitude
469.688 km
Semi-major axis
6,848.534 km
Eccentricity
0.0001
Inclination
97.3985°
RAAN
254.2724°
Arg. of periapsis
43.4096°
True anomaly
316.71447°
Mean anomaly
316.7226°
Eccentric anomaly
316.71853°
Mean motion
3.82954 °/min
Orbital period
94.01 mins
BSTAR
0.00022351
Loading maneuver chart data...
Computing Atmospheric mass density...
Loading historical data...
Loading historical data...
Loading historical data...
Loading historical data...
Loading historical data...
Loading historical data...
Loading historical data...

Documentation

Showing up to 5 results
|